Weather History for Osceola, WI

Change the Weather History Date:

Saturday, December 29, 2012

  Actual Average (KMSP) Record (KMSP)
Temperature  
Mean Temperature 12 °F 16 °F  
Max Temperature 19 °F 24 °F 53 °F (1999)
Min Temperature 3 °F 9 °F -24 °F (1917)
Degree Days  
Heating Degree Days 53 49  
Month to date heating degree days 1307  
Since 1 July heating degree days 2926  
Cooling Degree Days 0 0  
Month to date cooling degree days 0  
Year to date cooling degree days 753  
Moisture  
Dew Point 11 °F    
Average Humidity 87    
Maximum Humidity 100    
Minimum Humidity 73    
Precipitation  
Precipitation 0.00 in 0.03 in 0.80 in (1972)
Month to date precipitation 1.09  
Year to date precipitation 30.54  
Snow  
Snow 0.00 in 0.40 in 3.70 in (1972)
Month to date snowfall 11.2  
Since 1 July snowfall 21.1  
Snow Depth -    
Sea Level Pressure  
Sea Level Pressure 30.09 in    
Wind  
Wind Speed 4 mph (WSW)    
Max Wind Speed 13 mph    
Max Gust Speed -    
Visibility 8 miles    
Events Fog , Snow    
T = Trace of Precipitation, MM = Missing Value Source: NWS Daily Summary

Daily Weather History Graph

Daily Weather History Graph

Search for Another Location

Airport:

Trip Planner

Search our weather history database for the weather conditions in past years. The results will help you decide how hot, cold, wet, or windy it might be!

Date:

Astronomy

Dec. 29, 2012 Rise Set
Actual Time 7:49 AM CST 4:36 PM CST
Civil Twilight 7:15 AM CST 5:10 PM CST
Nautical Twilight 6:38 AM CST 5:47 PM CST
Astronomical Twilight 6:02 AM CST 6:23 PM CST
Moon 6:15 PM CST (12/29) 8:19 AM CST (12/29)
Length of Visible Light 9h 54m
Length of Day
8h 46m
Full, 98% of the Moon is Illuminated
Dec 29
Full
Jan 4
Last Quarter
Jan 11
New
Jan 18
First Quarter
Jan 26
Full

Hourly Weather History & Observations

Time (CST) Temp. Windchill Dew Point Humidity Pressure Visibility Wind Dir Wind Speed Gust Speed Precip Events Conditions
12:15 AM 6.8 °F - 3.2 °F 85% 30.03 in 1.2 mi Calm Calm - N/A   Overcast
12:35 AM 8.6 °F - 5.0 °F 85% 30.03 in 5.0 mi Calm Calm - N/A   Overcast
12:55 AM 8.6 °F - 5.0 °F 85% 30.03 in 0.2 mi Calm Calm - N/A Fog Light Freezing Fog
1:15 AM 10.4 °F - 8.6 °F 92% 30.02 in 0.2 mi Calm Calm - N/A Fog Light Freezing Fog
1:35 AM 10.4 °F - 8.6 °F 92% 30.03 in 0.2 mi Calm Calm - N/A Fog Light Freezing Fog
1:55 AM 12.2 °F - 10.4 °F 92% 30.03 in 0.5 mi Calm Calm - N/A Fog Light Freezing Fog
2:15 AM 12.2 °F - 10.4 °F 92% 30.03 in 4.0 mi Calm Calm - N/A   Overcast
2:35 AM 12.2 °F - 10.4 °F 92% 30.04 in 5.0 mi Calm Calm - N/A   Overcast
2:55 AM 14.0 °F - 12.2 °F 93% 30.04 in 5.0 mi Calm Calm - N/A Snow Light Snow
3:15 AM 14.0 °F - 12.2 °F 93% 30.04 in 5.0 mi Calm Calm - N/A Snow Light Snow
3:35 AM 14.0 °F - 12.2 °F 93% 30.04 in 7.0 mi Calm Calm - N/A   Overcast
3:55 AM 14.0 °F - 12.2 °F 93% 30.04 in 7.0 mi Calm Calm - N/A   Overcast
4:15 AM 14.0 °F - 12.2 °F 93% 30.04 in 7.0 mi Calm Calm - N/A   Overcast
4:35 AM 14.0 °F - 14.0 °F 100% 30.04 in 7.0 mi Calm Calm - N/A   Overcast
4:55 AM 14.0 °F - 14.0 °F 100% 30.04 in 7.0 mi Calm Calm - N/A   Overcast
5:15 AM 15.8 °F - 14.0 °F 93% 30.04 in 10.0 mi Calm Calm - N/A Snow Light Snow
5:35 AM 15.8 °F - 14.0 °F 93% 30.04 in 7.0 mi Calm Calm - N/A Snow Light Snow
5:55 AM 15.8 °F - 14.0 °F 93% 30.05 in 10.0 mi Calm Calm - N/A   Overcast
6:15 AM 17.6 °F - 14.0 °F 86% 30.05 in 10.0 mi Calm Calm - N/A   Overcast
6:35 AM 17.6 °F - 15.8 °F 93% 30.06 in 10.0 mi Calm Calm - N/A Snow Light Snow
6:55 AM 17.6 °F - 15.8 °F 93% 30.06 in 10.0 mi Calm Calm - N/A   Overcast
7:15 AM 19.4 °F 14.3 °F 17.6 °F 93% 30.06 in 10.0 mi West 3.5 mph - N/A   Overcast
7:35 AM 19.4 °F 11.5 °F 17.6 °F 93% 30.06 in 10.0 mi West 5.8 mph - N/A   Overcast
7:55 AM 19.4 °F 12.8 °F 17.6 °F 93% 30.06 in 10.0 mi West 4.6 mph - N/A   Overcast
8:15 AM 19.4 °F 14.3 °F 17.6 °F 93% 30.06 in 10.0 mi West 3.5 mph - N/A   Overcast
8:35 AM 19.4 °F 12.8 °F 17.6 °F 93% 30.06 in 10.0 mi WSW 4.6 mph - N/A   Overcast
8:55 AM 19.4 °F 9.5 °F 17.6 °F 93% 30.07 in 10.0 mi West 8.1 mph - N/A   Overcast
9:15 AM 19.4 °F 10.4 °F 17.6 °F 93% 30.08 in 10.0 mi West 6.9 mph - N/A   Overcast
9:35 AM 19.4 °F 9.5 °F 17.6 °F 93% 30.08 in 10.0 mi West 8.1 mph - N/A   Overcast
9:55 AM 19.4 °F 8.6 °F 17.6 °F 93% 30.09 in 10.0 mi West 9.2 mph - N/A   Overcast
10:15 AM 17.6 °F 5.7 °F 15.8 °F 93% 30.10 in 10.0 mi West 10.4 mph - N/A   Overcast
10:35 AM 17.6 °F 5.7 °F 15.8 °F 93% 30.10 in 10.0 mi West 10.4 mph - N/A Snow Light Snow
10:55 AM 17.6 °F 4.3 °F 14.0 °F 86% 30.10 in 10.0 mi WSW 12.7 mph - N/A   Overcast
11:15 AM 17.6 °F 5.0 °F 14.0 °F 86% 30.10 in 10.0 mi West 11.5 mph - N/A   Overcast
11:35 AM 17.6 °F 5.0 °F 14.0 °F 86% 30.10 in 10.0 mi WSW 11.5 mph - N/A   Overcast
11:55 AM 15.8 °F 5.1 °F 12.2 °F 86% 30.09 in 10.0 mi WNW 8.1 mph - N/A Snow Light Snow
12:15 PM 15.8 °F 4.2 °F 12.2 °F 86% 30.09 in 5.0 mi West 9.2 mph - N/A Snow Light Snow
12:35 PM 15.8 °F 4.2 °F 12.2 °F 86% 30.09 in 5.0 mi West 9.2 mph - N/A Snow Light Snow
12:55 PM 15.8 °F 5.1 °F 12.2 °F 86% 30.08 in 5.0 mi West 8.1 mph - N/A Snow Light Snow
1:15 PM 15.8 °F 6.1 °F 12.2 °F 86% 30.07 in 4.0 mi WSW 6.9 mph - N/A Snow Light Snow
1:35 PM 17.6 °F 8.2 °F 10.4 °F 73% 30.07 in 7.0 mi WSW 6.9 mph - N/A Snow Light Snow
1:55 PM 17.6 °F 6.4 °F 10.4 °F 73% 30.08 in 10.0 mi West 9.2 mph - N/A   Mostly Cloudy
2:15 PM 17.6 °F 8.2 °F 10.4 °F 73% 30.07 in 10.0 mi West 6.9 mph - N/A   Scattered Clouds
2:35 PM 17.6 °F 6.4 °F 10.4 °F 73% 30.08 in 10.0 mi West 9.2 mph - N/A   Clear
2:55 PM 17.6 °F 8.2 °F 10.4 °F 73% 30.08 in 10.0 mi West 6.9 mph - N/A   Scattered Clouds
3:15 PM 17.6 °F 8.2 °F 10.4 °F 73% 30.08 in 10.0 mi WSW 6.9 mph - N/A   Mostly Cloudy
3:35 PM 17.6 °F 9.3 °F 12.2 °F 79% 30.08 in 10.0 mi WSW 5.8 mph - N/A   Overcast
3:55 PM 17.6 °F 7.3 °F 10.4 °F 73% 30.09 in 10.0 mi WSW 8.1 mph - N/A   Overcast
4:15 PM 17.6 °F 8.2 °F 12.2 °F 79% 30.09 in 10.0 mi WSW 6.9 mph - N/A   Overcast
4:35 PM 17.6 °F 7.3 °F 12.2 °F 79% 30.09 in 10.0 mi WSW 8.1 mph - N/A Snow Light Snow
4:55 PM 17.6 °F 8.2 °F 12.2 °F 79% 30.09 in 10.0 mi WSW 6.9 mph - N/A Snow Light Snow
5:15 PM 17.6 °F 7.3 °F 12.2 °F 79% 30.09 in 7.0 mi WSW 8.1 mph - N/A Snow Light Snow
5:35 PM 17.6 °F 7.3 °F 12.2 °F 79% 30.10 in 7.0 mi WSW 8.1 mph - N/A Snow Light Snow
5:55 PM 17.6 °F 9.3 °F 12.2 °F 79% 30.10 in 10.0 mi West 5.8 mph - N/A Snow Light Snow
6:15 PM 17.6 °F 5.7 °F 12.2 °F 79% 30.11 in 10.0 mi WSW 10.4 mph - N/A   Overcast
6:35 PM 17.6 °F 7.3 °F 12.2 °F 79% 30.11 in 10.0 mi SW 8.1 mph - N/A Snow Light Snow
6:55 PM 14.0 °F 3.9 °F 10.4 °F 86% 30.12 in 10.0 mi West 6.9 mph - N/A   Mostly Cloudy
7:15 PM 14.0 °F 3.9 °F 10.4 °F 86% 30.13 in 10.0 mi West 6.9 mph - N/A   Mostly Cloudy
7:35 PM 14.0 °F 3.9 °F 10.4 °F 86% 30.13 in 10.0 mi West 6.9 mph - N/A   Overcast
7:55 PM 14.0 °F 2.9 °F 10.4 °F 86% 30.13 in 10.0 mi WSW 8.1 mph - N/A Snow Light Snow
8:15 PM 14.0 °F 2.0 °F 10.4 °F 86% 30.14 in 10.0 mi WSW 9.2 mph - N/A   Overcast
8:35 PM 12.2 °F -1.0 °F 8.6 °F 85% 30.14 in 10.0 mi WSW 10.4 mph - N/A Snow Light Snow
8:55 PM 12.2 °F -0.2 °F 8.6 °F 85% 30.14 in 10.0 mi West 9.2 mph - N/A   Overcast
9:15 PM 10.4 °F -2.4 °F 6.8 °F 85% 30.15 in 10.0 mi WSW 9.2 mph - N/A   Scattered Clouds
9:35 PM 8.6 °F 0.1 °F 5.0 °F 85% 30.15 in 10.0 mi WSW 4.6 mph - N/A   Clear
9:55 PM 6.8 °F -3.5 °F 5.0 °F 92% 30.16 in 10.0 mi SW 5.8 mph - N/A   Clear
10:15 PM 6.8 °F -3.5 °F 5.0 °F 92% 30.16 in 10.0 mi SW 5.8 mph - N/A   Clear
10:35 PM 6.8 °F -3.5 °F 3.2 °F 85% 30.17 in 10.0 mi SW 5.8 mph - N/A   Clear
10:55 PM 5.0 °F -4.1 °F 3.2 °F 92% 30.17 in 10.0 mi SW 4.6 mph - N/A   Clear
11:15 PM 5.0 °F -6.9 °F 3.2 °F 92% 30.18 in 10.0 mi SW 6.9 mph - N/A   Clear
11:35 PM 5.0 °F -5.6 °F 3.2 °F 92% 30.18 in 10.0 mi SW 5.8 mph - N/A   Clear
11:55 PM 3.2 °F -7.8 °F 1.4 °F 92% 30.18 in 10.0 mi SW 5.8 mph - N/A   Clear